Location: Ingoldesthorpe
(52.8667°N, 0.5167°E)
Time: 07:21:07
(UTC+00:00)

Landsat 5 - Pass Details

Date: 19 May 2025
Orbit: 510 x 610 km, 98.1° (Epoch: 18 June)

Event Time Altitude Azimuth Distance (km) Brightness Sun altitude
Rises 23:27:34 0° 12° (NNE) 2,806 8.3 -16.9°
Reaches altitude 10° 23:29:43 10° 10° (N) 1,917 7.3 -16.9°
Maximum altitude 23:33:51 66° 289° (WNW) 653 3.7 -17.0°
Enters shadow 23:36:03 27° 213° (SSW) 1,163 4.5 -17.0°
